Date,TemperatureHighF,TemperatureAvgF,TemperatureLowF,DewpointHighF,DewpointAvgF,DewpointLowF,HumidityHigh,HumidityAvg,HumidityLow,PressureMaxIn,PressureMinIn,WindSpeedMaxMPH,WindSpeedAvgMPH,GustSpeedMaxMPH,PrecipitationSumIn
2013-1-1,11.0,3.4,-8.0,9.0,-0.1,-13.0,88,84,78,0.00,40.00,6,2,8,0.00
2013-1-2,6.0,-2.9,-12.0,2.0,-7.2,-17.0,85,81,75,0.00,40.00,6,4,7,0.00
2013-1-3,10.0,-4.1,-15.0,4.0,-9.1,-21.0,83,78,70,0.00,40.00,13,7,14,0.00
2013-1-4,9.0,-4.1,-15.0,2.0,-9.0,-20.0,84,78,71,0.00,40.00,13,5,15,0.00
2013-1-5,14.0,-1.5,-11.0,7.0,-6.6,-17.0,85,78,70,0.00,40.00,15,8,17,0.00
2013-1-6,21.0,10.5,-1.0,14.0,5.4,-6.0,87,79,67,0.00,40.00,15,7,17,0.00
2013-1-7,28.0,7.5,-8.0,26.0,4.0,-13.0,93,85,78,0.00,40.00,13,4,17,0.00
2013-1-8,34.0,29.4,27.0,29.0,26.1,23.0,92,87,77,0.00,40.00,16,7,20,0.00
2013-1-9,38.0,30.5,14.0,28.0,24.0,11.0,90,77,66,0.00,40.00,18,8,21,0.00
2013-1-10,39.0,27.3,20.0,31.0,22.4,16.0,89,82,57,0.00,40.00,24,14,37,0.00
2013-1-11,20.0,15.6,8.0,17.0,10.0,0.0,90,78,63,0.00,40.00,21,4,30,0.00
2013-1-12,9.0,-1.1,-16.0,3.0,-5.9,-22.0,84,79,73,0.00,40.00,9,5,11,0.00
2013-1-13,2.0,-7.4,-19.0,-2.0,-12.1,-25.0,83,79,71,0.00,40.00,8,4,9,0.00
2013-1-14,3.0,2.6,2.0,-1.0,-2.2,-3.0,82,79,77,0.00,40.00,12,6,13,0.00
2013-1-15,10.0,5.6,2.0,6.0,0.8,-3.0,82,79,77,0.00,40.00,11,7,12,0.00
2013-1-16,13.0,5.3,-5.0,8.0,1.1,-9.0,84,82,77,0.00,40.00,11,7,13,0.00
2013-1-17,10.0,-2.7,-9.0,7.0,-7.1,-14.0,87,80,77,0.00,40.00,10,6,10,0.00
2013-1-18,12.0,0.0,-10.0,7.0,-4.7,-15.0,86,79,77,0.00,40.00,11,6,15,0.00
2013-1-19,8.0,-5.0,-11.0,5.0,-9.6,-16.0,85,80,77,0.00,40.00,10,6,11,0.00
2013-1-20,14.0,0.8,-9.0,8.0,-3.7,-13.0,86,81,76,0.00,40.00,8,5,9,0.00
2013-1-21,14.0,-1.6,-9.0,8.0,-5.9,-13.0,87,80,74,0.00,40.00,9,6,10,0.00
2013-1-22,16.0,2.3,-9.0,9.0,-2.4,-13.0,84,80,72,0.00,40.00,12,8,13,0.00
2013-1-23,26.0,6.5,-1.0,19.0,1.8,-5.0,83,80,72,0.00,40.00,9,7,10,0.00
2013-1-24,36.0,26.9,15.0,31.0,21.9,11.0,90,81,71,0.00,40.00,10,6,13,0.00
2013-1-25,36.0,33.4,31.0,32.0,30.9,29.0,93,90,85,0.00,40.00,9,5,13,0.00
2013-1-26,40.0,35.6,33.0,35.0,32.7,31.0,93,89,81,0.00,40.00,11,5,17,0.00
2013-1-27,35.0,29.1,25.0,32.0,25.6,20.0,95,87,78,0.00,40.00,17,12,24,0.00
2013-1-28,27.0,24.1,20.0,23.0,19.6,16.0,88,82,76,0.00,40.00,16,10,22,0.00
2013-1-29,28.0,24.7,18.0,24.0,20.2,16.0,92,83,65,0.00,40.00,16,7,21,0.00
2013-1-30,37.0,31.6,24.0,32.0,27.5,21.0,90,85,79,0.00,40.00,26,15,34,0.00
2013-1-31,38.0,35.4,32.0,33.0,31.2,28.0,89,84,79,0.00,40.00,19,11,27,0.00
2013-2-1,38.0,34.0,30.0,32.0,30.2,27.0,94,86,77,0.00,40.00,14,10,22,0.00
2013-2-2,34.0,30.0,25.0,30.0,27.5,23.0,95,90,83,0.00,40.00,11,7,14,0.00
2013-2-3,31.0,27.7,25.0,28.0,25.5,23.0,94,91,84,0.00,40.00,11,7,16,0.00
2013-2-4,38.0,31.6,28.0,30.0,27.4,25.0,95,84,69,0.00,40.00,10,5,13,0.00
2013-2-5,39.0,32.5,28.0,31.0,28.0,25.0,90,83,64,0.00,40.00,12,7,14,0.00
2013-2-6,37.0,32.3,26.0,31.0,27.6,23.0,94,83,69,0.00,40.00,18,9,25,0.00
2013-2-7,38.0,28.8,22.0,28.0,23.1,19.0,91,79,60,0.00,40.00,21,10,24,0.00
2013-2-8,35.0,31.5,27.0,31.0,25.7,20.0,93,79,68,0.00,40.00,24,13,29,0.00
2013-2-9,33.0,28.6,26.0,26.0,23.5,21.0,91,81,65,0.00,40.00,19,9,24,0.00
2013-2-10,32.0,27.6,18.0,25.0,17.2,11.0,94,65,47,0.00,40.00,32,17,40,0.00
2013-2-11,30.0,20.8,11.0,21.0,13.1,7.0,82,72,53,0.00,40.00,12,6,15,0.00
2013-2-12,33.0,25.7,17.0,28.0,19.3,12.0,85,76,68,0.00,40.00,13,8,16,0.00
2013-2-13,38.0,32.8,27.0,30.0,26.0,21.0,81,75,70,0.00,40.00,20,13,28,0.00
2013-2-14,40.0,31.7,27.0,28.0,26.0,23.0,90,79,59,0.00,40.00,15,9,21,0.00
2013-2-15,41.0,31.8,22.0,31.0,26.0,19.0,91,79,63,0.00,40.00,13,7,17,0.00
2013-2-16,43.0,32.0,23.0,32.0,25.8,20.0,91,78,57,0.00,40.00,16,6,19,0.00
2013-2-17,40.0,32.7,28.0,29.0,22.9,12.0,88,68,33,0.00,40.00,24,13,33,0.00
2013-2-18,35.0,28.6,22.0,23.0,20.3,18.0,85,71,52,0.00,40.00,19,8,23,0.00
2013-2-19,39.0,29.3,23.0,29.0,21.5,16.0,85,72,54,0.00,40.00,19,12,22,0.00
2013-2-20,32.0,29.4,27.0,29.0,24.6,19.0,90,82,71,0.00,40.00,15,9,21,0.00
2013-2-21,30.0,25.4,19.0,22.0,19.7,16.0,88,78,63,0.00,40.00,14,10,18,0.00
2013-2-22,35.0,28.6,20.0,28.0,23.1,18.0,92,80,62,0.00,40.00,19,12,28,0.00
2013-2-23,31.0,26.3,19.0,27.0,21.7,12.0,92,82,60,0.00,40.00,30,14,42,0.00
2013-2-24,29.0,20.6,5.0,21.0,14.1,2.0,89,75,62,0.00,40.00,14,8,18,0.00
2013-2-25,31.0,21.3,7.0,26.0,15.7,4.0,88,79,60,0.00,40.00,18,9,23,0.00
2013-2-26,31.0,24.6,17.0,22.0,18.6,15.0,91,78,55,0.00,40.00,14,9,19,0.00
2013-2-27,33.0,21.1,9.0,22.0,14.6,5.0,88,76,54,0.00,40.00,13,6,15,0.00
2013-2-28,37.0,26.3,16.0,29.0,19.9,12.0,94,77,56,0.00,40.00,17,7,19,0.00
2013-3-1,42.0,32.7,29.0,36.0,29.0,25.0,93,86,76,0.00,40.00,13,6,15,0.00
2013-3-2,45.0,35.0,28.0,36.0,30.8,26.0,95,85,67,0.00,40.00,15,8,17,0.00
2013-3-3,45.0,38.0,28.0,38.0,29.6,17.0,90,72,50,0.00,40.00,28,15,42,0.00
2013-3-4,34.0,29.1,24.0,23.0,17.7,12.0,80,63,41,0.00,40.00,11,6,14,0.00
2013-3-5,40.0,30.3,21.0,27.0,20.7,14.0,84,67,51,0.00,40.00,17,11,19,0.00
2013-3-6,51.0,35.4,29.0,35.0,27.5,22.0,92,73,49,0.00,40.00,28,12,35,0.00
2013-3-7,41.0,34.3,29.0,29.0,25.8,23.0,86,71,51,0.00,40.00,15,8,19,0.00
2013-3-8,42.0,34.5,30.0,35.0,30.6,27.0,94,85,71,0.00,40.00,13,8,15,0.00
2013-3-9,45.0,34.8,25.0,27.0,24.3,21.0,91,68,39,0.00,40.00,19,7,23,0.00
2013-3-10,47.0,36.6,27.0,30.0,24.5,19.0,85,63,39,0.00,40.00,17,10,24,0.00
2013-3-11,53.0,42.4,33.0,35.0,28.1,21.0,71,57,44,0.00,40.00,25,14,32,0.00
2013-3-12,54.0,40.5,30.0,38.0,31.8,27.0,89,72,46,0.00,40.00,14,8,19,0.00
2013-3-13,61.0,43.0,28.0,40.0,33.2,26.0,91,71,36,0.00,40.00,17,7,22,0.00
2013-3-14,63.0,44.2,29.0,43.0,34.5,27.0,92,71,40,0.00,40.00,12,6,14,0.00
2013-3-15,62.0,49.7,36.0,36.0,31.2,26.0,78,51,26,0.00,40.00,20,13,29,0.00
2013-3-16,56.0,44.5,33.0,36.0,27.2,20.0,80,53,25,0.00,40.00,23,12,29,0.00
2013-3-17,44.0,37.2,30.0,36.0,16.2,4.0,84,46,21,0.00,40.00,36,24,48,0.00
2013-3-18,44.0,33.8,22.0,17.0,14.5,9.0,73,46,29,0.00,40.00,35,17,46,0.00
2013-3-19,49.0,35.1,18.0,22.0,14.9,4.0,82,48,15,0.00,40.00,19,6,26,0.00
2013-3-20,50.0,39.2,29.0,44.0,32.3,16.0,94,76,55,0.00,40.00,30,10,40,0.00
2013-3-21,43.0,34.2,28.0,38.0,22.4,13.0,85,63,40,0.00,40.00,35,22,43,0.00
2013-3-22,30.0,26.1,24.0,24.0,20.0,16.0,90,77,62,0.00,40.00,18,9,24,0.00
2013-3-23,34.0,25.3,16.0,24.0,18.5,9.0,92,77,35,0.00,40.00,14,8,18,0.00
2013-3-24,35.0,26.5,18.0,21.0,16.2,6.0,91,68,29,0.00,40.00,11,6,14,0.00
2013-3-25,44.0,30.3,16.0,27.0,17.5,12.0,87,62,34,0.00,40.00,11,7,14,0.00
2013-3-26,44.0,36.1,30.0,34.0,27.5,22.0,88,71,53,0.00,40.00,16,8,21,0.00
2013-3-27,57.0,41.0,30.0,36.0,32.0,28.0,93,73,40,0.00,40.00,11,6,17,0.00
2013-3-28,62.0,45.4,29.0,37.0,31.8,26.0,91,64,28,0.00,40.00,19,8,23,0.00
2013-3-29,63.0,51.4,39.0,37.0,33.5,29.0,77,53,28,0.00,40.00,19,12,30,0.00
2013-3-30,60.0,47.0,28.0,35.0,28.9,-99.9,87,54,28,0.00,40.00,14,7,19,0.00
2013-3-31,67.0,45.3,25.0,32.0,24.9,17.0,86,52,15,0.00,40.00,12,6,17,0.00
2013-4-1,61.0,44.7,29.0,41.0,31.3,22.0,84,61,34,0.00,40.00,18,8,22,0.00
2013-4-2,65.0,48.3,31.0,41.0,35.4,30.0,95,66,27,0.00,40.00,14,7,19,0.00
2013-4-3,67.0,53.3,35.0,36.0,31.0,27.0,72,45,22,0.00,40.00,20,11,25,0.00
2013-4-4,71.0,53.9,33.0,43.0,34.1,28.0,84,51,21,0.00,40.00,22,10,31,0.00
2013-4-5,58.0,50.6,43.0,44.0,35.6,25.0,88,59,29,0.00,40.00,32,18,42,0.00
2013-4-6,58.0,46.9,39.0,37.0,33.6,30.0,80,60,35,0.00,40.00,34,14,43,0.00
2013-4-7,55.0,43.5,37.0,41.0,35.2,27.0,88,73,35,0.00,40.00,37,14,50,0.00
2013-4-8,45.0,39.2,35.0,35.0,26.9,12.0,94,65,36,0.00,40.00,40,20,49,0.00
2013-4-9,49.0,37.5,29.0,19.0,12.6,10.0,64,36,23,0.00,40.00,34,24,46,0.00
2013-4-10,58.0,40.7,19.0,38.0,22.8,10.0,68,50,29,0.00,40.00,24,11,35,0.00
2013-4-11,55.0,46.6,38.0,39.0,28.9,18.0,84,53,29,0.00,40.00,21,14,30,0.00
2013-4-12,56.0,43.5,25.0,27.0,20.1,14.0,76,42,19,0.00,40.00,17,9,24,0.00
2013-4-13,54.0,45.6,30.0,40.0,20.3,0.0,85,40,18,0.00,40.00,51,23,68,0.00
2013-4-14,43.0,33.6,23.0,23.0,10.7,2.0,69,41,19,0.00,40.00,16,11,26,0.00
2013-4-15,43.0,33.7,28.0,30.0,25.5,18.0,92,73,37,0.00,40.00,19,7,24,0.00
2013-4-16,44.0,33.7,25.0,24.0,13.4,7.0,80,45,23,0.00,40.00,31,22,37,0.00
2013-4-17,41.0,32.6,22.0,15.0,7.4,2.0,54,35,21,0.00,40.00,24,14,31,0.00
2013-4-18,50.0,34.1,14.0,22.0,10.7,4.0,71,40,21,0.00,40.00,19,9,36,0.00
2013-4-19,51.0,42.3,35.0,41.0,31.1,21.0,81,64,48,0.00,40.00,27,14,37,0.00
2013-4-20,57.0,46.9,39.0,39.0,32.9,23.0,89,62,27,0.00,40.00,28,16,40,0.00
2013-4-21,61.0,48.0,36.0,31.0,25.9,16.0,71,45,18,0.00,40.00,38,17,46,0.00
2013-4-22,45.0,38.6,31.0,30.0,20.3,8.0,93,51,24,0.00,40.00,22,12,34,0.00
2013-4-23,49.0,33.6,15.0,28.0,12.1,7.0,76,44,19,0.00,40.00,19,8,22,0.00
2013-4-24,56.0,39.6,22.0,24.0,16.3,8.0,76,44,14,0.00,40.00,11,6,18,0.00
2013-4-25,65.0,47.2,25.0,29.0,17.2,9.0,74,36,11,0.00,40.00,23,10,28,0.00
2013-4-26,69.0,51.5,27.0,30.0,23.0,18.0,78,37,16,0.00,40.00,15,8,26,0.00
2013-4-27,74.0,57.7,34.0,33.0,27.8,19.0,71,35,13,0.00,40.00,27,12,35,0.00
2013-4-28,68.0,57.5,46.0,33.0,27.4,20.0,58,33,20,0.00,40.00,32,19,44,0.00
2013-4-29,64.0,53.6,44.0,33.0,29.2,24.0,60,40,26,0.00,40.00,35,20,47,0.00
2013-4-30,51.0,42.4,33.0,30.0,19.9,13.0,86,42,24,0.00,40.00,30,18,34,0.00
2013-5-1,50.0,39.3,26.0,30.0,19.8,8.0,94,52,18,0.00,40.00,15,7,21,0.00
2013-5-2,61.0,43.5,23.0,32.0,17.9,5.0,74,40,13,0.00,40.00,10,6,12,0.00
2013-5-3,66.0,50.1,30.0,35.0,22.6,12.0,69,39,12,0.00,40.00,24,7,29,0.00
2013-5-4,65.0,52.5,46.0,40.0,34.6,30.0,68,51,28,0.00,40.00,28,20,33,0.00
2013-5-5,70.0,54.3,41.0,39.0,34.2,26.0,80,51,19,0.00,40.00,19,13,24,0.00
2013-5-6,71.0,56.0,39.0,43.0,36.0,28.0,82,51,21,0.00,40.00,34,12,44,0.00
2013-5-7,61.0,54.4,47.0,47.0,42.9,37.0,89,67,43,0.00,40.00,25,1,29,0.00
2013-5-8,68.0,54.7,39.0,46.0,41.7,35.0,91,64,31,0.00,40.00,21,7,29,0.00
2013-5-9,75.0,55.8,36.0,49.0,39.4,28.0,88,60,17,0.00,40.00,20,6,31,0.00
2013-5-10,76.0,58.5,40.0,45.0,37.0,-99.9,90,54,18,0.00,40.00,14,7,19,0.00
2013-5-11,80.0,61.1,41.0,46.0,35.4,-99.9,74,44,14,0.00,40.00,15,6,20,0.00
2013-5-12,85.0,66.2,44.0,45.0,37.6,30.0,80,42,14,0.00,40.00,21,7,25,0.00
2013-5-13,88.0,69.4,47.0,44.0,38.8,34.0,77,38,15,0.00,40.00,17,9,25,0.00
2013-5-14,78.0,66.2,55.0,43.0,38.9,31.0,61,39,20,0.00,40.00,19,14,29,0.00
2013-5-15,79.0,65.6,53.0,45.0,38.9,33.0,60,40,19,0.00,40.00,29,11,52,0.00
2013-5-16,70.0,56.7,52.0,47.0,27.4,-99.9,79,50,31,0.00,40.00,30,13,37,0.00
2013-5-17,58.0,52.6,49.0,48.0,42.3,-99.9,89,78,61,0.00,40.00,16,9,21,0.00
2013-5-20,66.0,60.6,51.0,48.0,43.2,39.0,82,54,39,0.00,40.00,12,6,16,0.00
2013-5-21,73.0,58.0,39.0,48.0,40.7,32.0,92,58,21,0.00,40.00,25,11,34,0.00
2013-5-22,59.0,49.4,40.0,44.0,31.0,19.0,70,49,31,0.00,40.00,26,15,36,0.00
2013-5-23,62.0,48.3,39.0,37.0,31.0,24.0,78,54,27,0.00,40.00,24,8,32,0.00
2013-5-24,69.0,54.1,35.0,36.0,25.0,17.0,67,36,14,0.00,40.00,19,9,26,0.00
2013-5-25,69.0,52.7,37.0,41.0,33.2,27.0,79,51,20,0.00,40.00,15,2,22,0.00
2013-5-26,71.0,56.8,42.0,43.0,35.9,28.0,79,50,20,0.00,40.00,19,7,30,0.00
2013-5-27,65.0,55.0,44.0,42.0,35.5,25.0,76,51,23,0.00,40.00,21,13,30,0.00
2013-5-28,54.0,49.2,44.0,48.0,44.4,41.0,92,83,67,0.00,40.00,20,7,25,0.00
2013-5-29,61.0,52.6,44.0,45.0,40.0,33.0,85,64,39,0.00,40.00,23,12,34,0.00
2013-5-30,63.0,52.0,40.0,42.0,33.4,25.0,85,53,24,0.00,40.00,24,14,33,0.00
2013-5-31,66.0,53.1,40.0,37.0,31.3,25.0,78,47,22,0.00,40.00,17,11,27,0.00
2013-6-1,73.0,56.4,38.0,44.0,32.4,18.0,81,45,12,0.00,40.00,12,7,16,0.00
2013-6-2,83.0,63.5,41.0,44.0,36.5,26.0,80,42,15,0.00,40.00,30,11,40,0.00
2013-6-3,70.0,57.1,42.0,38.0,32.4,23.0,75,42,20,0.00,40.00,18,9,27,0.00
2013-6-4,71.0,57.9,41.0,46.0,36.0,30.0,76,47,25,0.00,40.00,17,8,23,0.00
2013-6-5,77.0,59.9,41.0,43.0,38.3,34.0,79,49,21,0.00,40.00,14,8,20,0.00
2013-6-6,82.0,63.3,45.0,52.0,42.7,37.0,84,51,21,0.00,40.00,33,7,42,0.00
2013-6-7,84.0,65.8,46.0,54.0,44.8,37.0,91,54,21,0.00,40.00,22,11,39,0.00
2013-6-8,81.0,67.9,54.0,49.0,41.0,33.0,72,41,18,0.00,40.00,19,12,25,0.00
2013-6-9,88.0,71.9,49.0,51.0,41.7,36.0,75,36,18,0.00,40.00,18,10,25,0.00
2013-6-10,92.0,75.6,57.0,52.0,42.5,23.0,76,35,11,0.00,40.00,24,10,31,0.00
2013-6-11,81.0,70.3,59.0,54.0,44.7,31.0,77,41,19,0.00,40.00,33,13,57,0.00
2013-6-12,73.0,62.1,54.0,59.0,52.0,43.0,87,70,43,0.00,40.00,19,7,25,0.09
2013-6-13,71.0,59.7,52.0,53.0,44.0,34.0,89,59,29,0.00,40.00,25,12,31,0.01
2013-6-14,64.0,53.7,44.0,39.0,33.2,25.0,73,48,22,0.00,40.00,25,14,36,0.00
2013-6-15,78.0,56.2,35.0,53.0,34.1,9.0,84,51,9,0.00,40.00,12,6,15,0.00
2013-6-16,87.0,65.3,42.0,49.0,39.4,27.0,85,45,12,0.00,40.00,24,8,32,0.00
2013-6-17,86.0,67.8,48.0,58.0,42.7,32.0,81,45,15,0.00,40.00,15,6,16,0.00
2013-6-18,87.0,66.5,46.0,52.0,42.5,31.0,89,48,13,0.00,40.00,12,7,23,0.00
2013-6-19,65.0,57.2,45.0,48.0,40.6,36.0,77,54,37,0.00,40.00,37,15,48,0.02
2013-6-28,90.0,71.8,54.0,49.0,-70.1,-99.9,82,67,29,0.00,40.00,6,4,8,0.00
2013-7-10,-200.0,0.0,200.0,-99.9,-99.9,-99.9,0,0,100,0.00,40.00,4,4,5,0.00
2013-7-14,82.0,82.0,82.0,54.0,54.0,54.0,38,38,38,0.00,40.00,8,8,11,0.00
2013-8-16,-200.0,0.0,200.0,-99.9,-99.9,-99.9,0,0,100,0.00,40.00,9,9,13,0.00
2013-8-17,-200.0,0.0,200.0,-99.9,-99.9,-99.9,0,0,100,0.00,40.00,6,6,10,0.00
2013-8-19,-200.0,0.0,200.0,-99.9,-99.9,-99.9,22,13,19,0.00,40.00,13,10,17,0.00
2013-8-20,-200.0,0.0,200.0,-99.9,-99.9,-99.9,39,39,39,0.00,40.00,2,2,4,0.00
2013-11-9,-200.0,0.0,200.0,-99.9,-99.9,-99.9,0,0,100,0.00,40.00,4,4,4,0.00
2013-11-11,28.0,28.0,28.0,21.0,21.0,21.0,76,76,76,0.00,40.00,5,5,6,0.00
2013-11-30,-200.0,0.0,200.0,-99.9,-99.9,-99.9,0,0,100,0.00,40.00,14,14,17,0.00
2013-12-7,-200.0,0.0,200.0,-99.9,-99.9,-99.9,0,0,100,0.00,40.00,9,9,11,0.00